SCP
0 0 0 0 0 0 0 0 0 0 0 0 0 0 0 0 0 0 0 0 0 0 0 0 0 0 0 0 0 0 0 0 0 0 0 0 0 0 0 0 0 0 0 0 0 0 0 0 0 0 0 0 0 0
0 0 0 0 0 0 0 0 0 0 0 0 0 0 0 0 0 0 0 0 0 0 0 0 0 0 0 0 0 0 0 0 0 0 0 0 0 0 0 0 0 0 0 0 0 0 0 0 0 0 0 0 0 0
0 0 0 0 0 0 0 0 0 0 0 0 0 0 0 0 0 0 0 0 0 0 0 0 0 0 0 0 0 0 0 0 0 0 0 0 0 0 0 0 0 0 0 0 0 0 0 0 0 0 0 0 0 0
0 0 0 0 0 0 0 0 0 0 0 0 0 0 0 0 0 0 0 0 0 0 0 0 0 0 0 0 0 0 0 0 0 0 0 0 0 0 0 0 0 0 0 0 0 0 0 0 0 0 0 0 0 0
0 0 0 0 0 0 0 0 0 0 0 0 0 0 0 0 0 0 0 0 0 0 0 0 0 0 0 0 0 0 0 0 0 0 0 0 0 0 0 0 0 0 0 0 0 0 0 0 0 0 0 0 0 0
0 0 0 0 0 0 0 0 0 0 0 0 0 0 0 0 0 0 0 0 0 0 0 0 0 0 0 0 0 0 0 0 0 0 0 0 0 0 0 0 0 0 0 0 0 0 0 0 0 0 0 0 0 0
0 0 0 0 0 0 0 0 0 0 0 0 0 0 0 0 0 0 0 0 0 0 0 0 0 0 0 0 0 0 0 0 0 0 0 0 0 0 0 0 0 0 0 0 0 0 0 0 0 0 0 0 0 0
0 0 0 0 0 0 0 0 0 0 0 0 0 0 0 0 0 0 0 0 0 0 0 0 0 0 0 0 0 0 0 0 0 0 0 0 0 0 0 0 0 0 0 0 0 0 0 0 0 0 0 0 0 0
-0 0 0 0 0 0 0 0 0 0 0 0 0 0 0 0 0 0 0 0 0 0 0 0 0 0 0 0 0 0 0 0 0 0 0 0 0 0 0 0 0 0 0 0 0 0 0 0 0 0 0 0 0 0
-0 0 0 0 0 0 0 0 0 0 0 0 0 0 0 0 0 0 0 0 0 0 0 0 0 0 0 0 0 0 0 0 0 0 0 0 0 0 0 0 0 0 0 0 0 0 0 0 0 0 0 0 0 0
0 -0 0 0 0 0 0 0 0 0 0 0 0 0 0 0 0 0 0 0 0 0 0 0 0 0 0 0 0 0 0 0 0 0 0 0 0 0 0 0 0 0 0 0 0 0 0 0 0 0 0 0 0 0
0 0 0 0 0 0 0 0 0 0 0 0 0 0 0 0 0 0 0 0 0 0 0 0 0 0 0 0 0 0 0 0 0 0 0 0 0 0 0 0 0 0 0 0 0 0 0 0 0 0 0 0 0 0
0 0 0 0 0 0 0 0 0 0 0 0 0 0 0 0 0 0 0 0 0 0 0 0 0 0 0 0 0 0 0 0 0 0 0 0 0 0 0 0 0 0 0 0 0 0 0 0 0 0 0 0 0 0
0 0 0 0 0 0 0 0 0 0 0 0 0 0 0 0 0 0 0 0 0 0 0 0 0 0 0 0 0 0 0 0 0 0 0 0 0 0 0 0 0 0 0 0 0 0 0 0 0 0 0 0 0 0
0 0 0 0 0 0 0 0 0 0 0 0 0 0 0 0 0 0 0 0 0 0 0 0 0 0 0 0 0 0 0 0 0 0 0 0 0 0 0 0 0 0 0 0 0 0 0 0 0 0 0 0 0 0
0 0 0 0 0 0 -0 0 0 0 0 0 0 0 0 0 0 0 0 0 0 0 0 0 0 0 0 0 0 0 0 0 0 0 0 0 0 0 0 0 0 0 0 0 0 0 0 0 0 0 0 0 0 0
0 0 0 0 -0 -0 -0 0 0 0 0 0 0 0 0 0 0 0 0 0 0 0 0 0 0 0 0 0 0 0 0 0 0 0 0 0 0 0 0 0 0 0 0 0 0 0 0 0 0 0 0 0 0 0
0 0 0 0 0 0 0 0 0 0 0 0 0 0 0 0 0 0 0 0 0 0 0 0 0 0 0 0 0 0 0 0 0 0 0 0 0 0 0 0 0 0 0 0 0 0 0 0 0 0 0 0 0 0
0 0 0 0 0 0 -0 -0 0 0 0 0 0 0 0 0 0 0 0 0 0 0 0 0 0 0 0 0 0 0 0 0 0 0 0 0 0 0 0 0 0 0 0 0 0 0 0 0 0 0 0 0 0 0
0 -0 -0 -0 -0 -0 -0 -0 0 0 0 0 0 0 0 0 0 0 0 0 0 0 0 0 0 0 0 0 0 0 0 0 0 0 0 0 0 0 0 0 0 0 0 0 0 0 0 0 0 0 0 0 0 0
0 0 0 0 0 -0 -0 0 -0 0 0 0 0 0 0 0 0 0 0 0 0 0 0 0 0 0 0 0 0 0 0 0 0 0 0 0 0 0 0 0 0 0 0 0 0 0 0 0 0 0 0 0 0 0
0 -0 0 -0 0 -0 0 0 0 0 0 0 0 0 0 0 0 0 0 0 0 0 0 0 0 0 0 0 0 0 0 0 0 0 0 0 0 0 0 0 0 0 0 0 0 0 0 0 0 0 0 0 0 0
-0 0 0 -0 0 -0 0 0 0 -0 0 0 0 0 0 0 0 0 0 0 0 0 0 0 0 0 0 0 0 0 0 0 0 0 0 0 0 0 0 0 0 0 0 0 0 0 0 0 0 0 0 0 0 0
-0 0 0 0 -0 0 0 -0 0 0 -0 -0 0 0 0 0 0 0 0 0 0 0 0 0 0 0 0 0 0 0 0 0 0 0 0 0 0 0 0 0 0 0 0 0 0 0 0 0 0 0 0 0 0 0
0 -0 0 0 0 0 -0 -0 -0 -0 -0 -0 0 0 0 0 0 0 0 0 0 0 0 0 0 0 0 0 0 0 0 0 0 0 0 0 0 0 0 0 0 0 0 0 0 0 0 0 0 0 0 0 0 0
-0 -0 0 0 0 -0 -0 0 0 0 0 -0 0 0 0 0 0 0 0 0 0 0 0 0 0 0 0 0 0 0 0 0 0 0 0 0 0 0 0 0 0 0 0 0 0 0 0 0 0 0 0 0 0 0
-0 0 0 0 0 0 0 0 0 0 0 0 0 0 0 0 0 0 0 0 0 0 0 0 0 0 0 0 0 0 0 0 0 0 0 0 0 0 0 0 0 0 0 0 0 0 0 0 0 0 0 0 0 0
0 0 0 0 -0 0 0 0 0 0 0 0 0 0 0 0 0 0 0 0 0 0 0 0 0 0 0 0 0 0 0 0 0 0 0 0 0 0 0 0 0 0 0 0 0 0 0 0 0 0 0 0 0 0
0 0 0 0 0 0 0 0 0 0 0 0 0 0 0 0 0 0 0 0 0 0 0 0 0 0 0 0 0 0 0 0 0 0 0 0 0 0 0 0 0 0 0 0 0 0 0 0 0 0 0 0 0 0
0 0 0 0 0 0 0 0 0 0 0 0 -0 -0 0 0 0 0 0 0 0 0 0 0 0 0 0 0 0 0 0 0 0 0 0 0 0 0 0 0 0 0 0 0 0 0 0 0 0 0 0 0 0 0
0 0 0 0 0 0 0 0 0 0 0 0 0 0 0 0 0 0 0 0 0 0 0 0 0 0 0 0 0 0 0 0 0 0 0 0 0 0 0 0 0 0 0 0 0 0 0 0 0 0 0 0 0 0
0 0 0 0 0 0 0 0 0 0 0 0 0 0 0 0 0 0 0 0 0 0 0 0 0 0 0 0 0 0 0 0 0 0 0 0 0 0 0 0 0 0 0 0 0 0 0 0 0 0 0 0 0 0
0 0 0 0 0 0 0 0 0 0 0 0 0 0 0 0 0 0 0 0 0 0 0 0 0 0 0 0 0 0 0 0 0 0 0 0 0 0 0 0 0 0 0 0 0 0 0 0 0 0 0 0 0 0
Wind_Speed_500mb
19 17 17 17 12 19 20 21 21 25 21 18 13 9 12 17 14 21 17 14 9 10 13 16 13 11 11 10 15 13 11 0 3 7 6 5 5 11 9 9 15 14 13 9 5 15 31 16 11 30 8 12 6 6
13 15 10 15 16 15 19 21 21 23 24 19 15 12 12 18 15 23 22 16 19 12 15 25 22 24 27 16 24 18 5 6 7 9 5 5 4 3 9 7 1 5 12 13 23 16 1 29 5 12 3 7 2 3
7 5 8 11 13 16 18 18 27 27 24 20 17 13 11 14 16 15 23 19 24 32 23 12 21 22 19 20 23 12 6 9 8 10 7 3 6 5 7 8 6 6 4 6 7 4 6 30 12 13 2 8 7 5
2 5 5 11 11 14 16 17 18 33 31 25 22 19 15 15 16 17 24 24 14 12 8 7 15 18 22 16 16 18 38 36 29 17 8 5 4 3 4 3 5 3 10 9 5 5 12 4 16 6 9 5 5 8
12 12 11 11 11 12 15 18 17 23 26 27 27 23 18 16 18 20 20 20 13 7 8 10 19 17 19 22 21 27 17 21 16 7 5 3 8 6 2 4 2 9 6 6 4 7 10 10 15 10 4 3 8 9
12 10 17 15 14 14 17 20 21 23 22 26 29 25 23 17 18 20 6 11 14 19 11 4 5 8 18 26 35 33 29 28 11 9 4 5 6 5 4 4 7 13 12 6 8 11 15 14 9 10 7 2 4 10
20 13 12 13 13 12 16 18 19 22 25 25 27 28 25 23 24 9 5 17 21 17 8 5 5 6 15 17 14 17 16 12 9 8 6 7 6 9 5 4 1 10 8 6 13 18 11 13 6 6 10 6 7 6
13 15 12 11 14 15 12 13 12 15 21 29 29 33 31 31 25 14 16 25 22 10 7 6 1 4 6 7 8 7 6 7 10 6 5 4 8 5 1 15 7 14 13 5 9 10 5 12 10 15 15 14 12 14
9 11 15 12 11 13 15 11 21 23 25 31 41 57 41 24 9 15 20 21 10 8 8 6 8 6 11 8 8 6 5 5 5 4 2 5 1 4 11 9 12 19 18 22 24 20 15 11 12 10 7 4 6 9
8 13 15 18 17 14 12 16 14 28 30 44 37 20 10 14 33 25 12 6 3 4 5 4 8 5 8 5 5 5 6 3 3 4 2 5 6 10 6 3 8 25 10 13 19 12 5 4 3 8 11 12 14 15
17 16 14 15 14 13 12 11 10 23 31 22 8 9 39 28 11 8 6 6 6 5 4 4 6 8 5 6 5 3 4 2 5 7 8 3 5 5 12 17 15 15 13 16 11 8 7 11 14 15 16 18 20 24
28 20 12 8 8 10 13 8 4 8 14 14 28 33 14 7 8 10 3 6 4 6 4 7 7 9 10 7 7 1 6 4 5 3 6 6 6 3 8 14 17 16 17 17 16 17 16 16 15 15 15 15 17 20
32 20 10 6 2 4 2 3 7 6 4 33 14 8 2 6 14 9 4 7 4 5 11 10 4 8 9 7 11 6 7 6 3 3 7 7 3 8 14 17 15 12 10 10 9 8 7 8 9 9 12 16 17 19
23 13 5 2 9 14 16 14 12 15 12 5 6 5 7 2 5 8 9 8 2 2 17 17 9 5 6 6 4 8 2 5 5 1 10 5 12 12 12 11 14 10 6 1 3 6 6 7 10 13 13 11 11 12
13 4 6 16 23 26 30 33 34 28 8 4 5 4 6 6 8 7 6 6 5 15 17 15 10 7 3 6 5 7 5 5 10 9 6 3 11 10 7 6 6 5 1 5 8 10 10 9 9 13 17 19 18 19
10 6 14 22 18 16 20 47 63 28 8 6 10 8 6 5 4 6 9 8 7 16 9 8 4 6 2 8 6 8 12 11 7 3 1 5 11 10 8 6 3 1 3 5 7 11 15 19 22 25 27 27 28 29
9 11 15 9 4 38 63 73 51 13 9 6 7 17 12 13 8 7 8 8 7 4 3 3 5 5 4 4 1 7 9 4 4 6 5 5 7 7 7 6 7 8 10 14 19 23 27 31 33 34 32 32 34 36
10 12 12 18 45 47 41 22 11 11 13 15 5 9 15 16 10 12 11 11 5 4 3 2 12 7 7 10 7 2 3 3 5 3 3 1 1 0 2 6 9 13 16 18 19 23 26 29 33 35 38 40 41 43
13 17 19 20 29 18 9 12 11 12 12 8 10 16 14 12 23 18 12 9 10 11 9 5 4 1 3 2 2 3 5 7 5 7 12 11 7 7 9 11 13 15 18 21 24 27 30 33 34 37 39 43 48 50
21 21 19 15 10 9 10 12 12 13 8 6 10 10 8 9 10 19 17 11 9 7 15 8 2 1 3 5 6 6 7 8 10 10 4 6 11 15 20 22 22 22 22 23 25 26 27 30 35 37 41 45 50 52
20 16 18 13 17 22 15 11 14 11 8 9 9 11 8 10 12 15 17 17 12 12 4 7 5 7 7 6 4 4 5 8 10 10 14 12 15 24 24 28 28 29 27 26 27 29 31 30 28 29 32 35 36 39
19 15 15 22 16 13 17 20 10 7 6 7 7 9 11 8 13 17 16 18 10 9 7 10 11 11 10 11 9 10 9 10 12 15 18 22 22 20 19 24 26 25 27 26 26 25 24 24 23 23 23 24 26 27
13 15 16 19 11 14 8 12 7 12 6 7 5 6 7 7 12 11 10 8 6 13 13 13 14 14 12 10 11 13 14 16 18 21 22 23 23 25 25 24 26 25 22 23 24 23 22 22 23 24 25 25 27 26
14 13 17 16 23 6 8 13 11 11 9 8 6 4 6 10 16 9 4 4 8 11 15 18 17 14 12 12 12 13 17 18 19 20 27 26 24 20 25 24 23 24 25 24 25 24 24 24 25 26 28 28 28 27
10 26 17 15 18 14 13 11 12 10 6 7 6 6 7 13 5 5 0 5 14 16 18 18 17 17 17 14 15 18 21 23 24 22 21 27 26 25 23 27 27 27 27 28 27 28 27 28 29 30 31 31 31 30
16 26 14 12 13 10 4 7 8 6 5 8 3 13 9 4 7 2 4 13 14 20 23 22 21 19 16 18 19 19 22 27 28 28 24 26 27 31 31 30 27 25 29 29 30 32 31 31 31 32 31 33 34 35
12 9 13 18 9 6 6 3 2 5 6 4 6 9 5 7 3 5 7 10 17 21 22 23 24 24 24 20 22 26 29 30 30 30 28 30 32 34 35 35 32 29 29 31 34 35 34 33 33 34 35 33 33 37
10 17 3 18 9 11 5 3 5 3 4 5 7 5 4 8 6 8 7 16 18 19 21 22 22 22 23 22 23 22 23 26 29 31 31 29 26 26 26 26 25 26 27 28 29 31 33 34 36 36 38 38 36 34
9 25 15 9 5 7 7 3 3 3 9 4 4 5 6 6 6 7 10 15 17 21 21 18 21 24 25 26 25 25 25 26 29 29 26 26 25 23 24 25 27 28 31 32 32 35 36 38 38 41 41 40 39 39
15 28 9 8 4 4 5 10 10 19 15 10 11 11 11 9 6 7 15 21 19 26 26 25 28 29 28 28 26 22 27 30 29 29 32 30 31 31 31 32 33 34 38 40 39 37 39 44 45 47 49 51 51 51
16 17 10 6 5 4 15 22 17 15 11 8 12 12 14 14 10 8 14 25 24 29 31 27 25 29 31 32 34 35 30 29 29 31 34 36 35 35 36 38 41 43 46 48 48 48 49 51 52 54 55 56 55 55
12 10 12 6 5 13 17 18 13 8 7 7 6 10 12 11 8 8 19 28 28 31 25 26 30 28 31 32 33 36 39 37 35 38 40 43 42 40 41 42 43 45 48 50 51 52 52 54 56 56 58 57 56 56
9 9 7 8 8 6 9 20 6 9 8 6 5 7 6 7 8 8 24 25 30 29 21 27 31 34 35 37 37 40 41 41 44 47 49 51 53 53 55 55 54 54 56 58 58 58 58 59 61 62 63 65 66 66
Wind_Direction_500mb
50 62 68 94 127 171 162 154 160 168 179 176 166 166 167 173 173 175 126 100 115 106 55 34 46 85 113 154 162 152 115 244 44 95 118 208 153 207 114 167 170 150 145 183 115 213 257 160 132 176 247 44 63 74
44 49 90 104 116 161 181 169 156 162 164 161 153 143 158 172 150 157 158 102 117 105 107 89 71 78 75 98 153 149 69 115 159 108 163 143 157 95 151 199 256 196 186 174 186 209 154 181 174 197 55 84 112 127
328 22 61 137 133 144 165 175 176 164 161 159 156 150 152 162 161 156 160 139 107 110 99 89 75 73 95 92 114 110 96 127 118 112 127 125 135 108 163 235 102 253 168 174 95 208 161 195 214 208 167 115 98 57
175 64 118 152 155 155 163 176 182 186 171 173 170 164 161 167 165 165 161 167 137 122 101 55 100 84 74 92 107 85 106 103 93 81 78 97 130 204 211 152 152 207 132 167 268 113 107 108 218 185 192 124 68 31
118 75 95 127 162 173 163 170 182 198 177 182 181 172 162 161 161 157 166 157 138 84 125 111 106 82 86 89 115 147 118 94 75 66 70 131 111 119 355 50 278 180 187 182 210 150 112 123 90 115 170 68 66 60
78 50 64 94 100 161 169 172 176 175 186 196 193 179 177 162 156 146 123 170 134 115 105 95 98 88 107 107 119 138 131 126 98 112 108 99 134 97 98 177 264 187 163 156 137 106 93 111 124 115 111 164 282 311
43 76 72 80 74 113 145 151 163 174 188 195 190 181 175 172 170 172 160 154 142 114 99 79 4 80 118 126 101 94 95 99 90 99 71 126 114 145 93 174 126 174 168 198 178 165 172 184 173 260 285 303 332 26
44 47 80 90 75 88 107 161 168 160 174 177 178 168 167 168 157 118 117 153 146 92 82 112 25 64 122 65 77 84 82 88 50 81 105 96 113 85 216 247 220 169 180 227 176 208 202 186 122 91 86 79 61 55
71 69 75 94 93 90 89 103 141 124 143 159 154 158 157 150 121 132 137 152 119 83 108 85 129 180 137 83 84 71 72 65 34 80 58 131 0 214 221 237 191 180 177 195 189 164 127 114 95 77 53 2 343 337
143 121 84 64 70 85 93 96 149 132 122 121 80 66 59 102 120 122 108 102 90 15 67 99 127 108 124 88 70 108 26 87 107 268 91 89 252 251 199 117 163 169 104 151 159 164 192 183 296 321 325 316 313 311
175 154 112 103 87 77 73 101 112 159 147 107 73 74 123 101 68 52 90 62 358 30 56 88 102 120 109 99 150 63 147 54 100 253 138 311 270 251 222 210 150 168 177 187 199 205 246 267 278 283 283 287 290 294
174 153 137 145 79 88 61 84 168 79 52 117 121 124 104 79 62 75 332 348 59 218 193 141 141 114 119 125 97 68 105 43 201 194 184 284 249 351 131 171 207 220 223 225 232 249 260 268 277 285 288 294 299 302
147 144 157 149 75 336 319 29 143 179 74 113 115 129 99 18 48 107 215 307 338 210 180 160 113 109 104 88 69 83 86 188 135 105 218 229 89 129 129 130 132 143 164 186 204 220 232 254 275 293 307 315 316 312
114 141 141 342 294 272 264 254 189 157 209 118 127 67 117 307 244 185 182 189 142 231 161 135 91 111 112 70 141 98 257 72 62 23 232 241 156 138 129 129 132 112 106 82 287 285 282 289 298 301 302 306 314 319
128 79 350 332 300 283 265 231 182 178 194 112 126 146 206 138 87 113 145 105 50 140 146 114 71 99 50 92 65 102 62 210 202 222 224 120 169 163 133 133 140 138 322 310 308 303 302 309 313 310 306 305 308 310
76 28 354 335 319 312 254 185 171 160 93 64 43 98 72 64 352 80 74 90 66 148 137 97 100 82 104 132 117 207 124 206 241 222 5 154 160 159 152 154 126 107 286 300 298 302 304 307 310 307 302 300 302 304
39 16 13 4 79 99 111 129 135 83 73 55 31 65 76 70 78 53 61 58 113 124 145 110 106 165 84 82 53 194 196 236 34 72 86 148 178 183 195 205 230 253 269 277 284 288 292 296 296 294 293 296 299 301
22 6 44 72 113 109 107 92 81 76 67 44 71 24 52 59 62 58 57 56 99 82 56 77 135 77 160 157 256 251 71 72 113 82 52 89 132 205 282 289 294 295 294 291 287 287 287 288 290 293 295 297 299 300
53 76 99 85 112 100 64 45 44 87 59 61 55 45 52 65 56 59 72 79 90 97 106 66 65 161 216 211 229 50 37 22 332 292 295 279 273 300 307 302 297 294 294 296 298 297 295 294 294 296 297 298 300 303
77 93 80 62 39 78 75 44 46 74 80 61 50 39 53 45 52 52 58 80 86 58 44 41 108 355 8 359 346 341 339 338 346 352 323 280 293 306 314 313 305 296 289 285 284 281 283 288 293 296 298 299 300 302
92 79 50 48 55 61 74 49 58 60 64 68 35 36 39 39 41 36 28 32 60 43 65 46 16 340 322 319 317 337 316 315 319 321 303 294 294 301 301 301 304 302 299 291 286 286 288 289 290 292 296 297 301 305
57 42 37 42 58 64 63 41 63 60 61 69 42 32 39 24 14 12 9 45 61 41 32 4 355 344 323 311 296 285 285 288 297 301 301 298 300 294 290 294 297 296 295 293 290 288 288 289 293 299 303 306 313 318
34 31 46 33 66 49 41 32 56 28 58 12 31 53 30 18 1 6 69 59 77 24 20 12 2 1 349 331 315 306 304 301 301 304 303 300 298 300 302 299 298 299 297 296 295 293 292 293 296 301 308 313 313 313
57 53 32 39 29 31 11 30 33 27 44 26 22 39 16 337 348 54 70 43 11 2 2 359 356 357 358 347 332 316 314 313 311 312 310 310 300 295 298 300 295 293 293 296 296 297 297 301 303 303 299 297 297 300
67 14 24 6 15 24 27 10 357 28 43 344 21 4 346 346 43 48 287 351 0 5 2 354 348 342 333 334 323 322 320 318 315 313 307 310 310 304 302 305 301 298 297 294 294 299 304 300 298 297 296 296 298 299
66 18 36 357 0 41 340 33 18 358 355 358 334 318 331 34 53 327 272 340 343 344 347 346 342 337 331 321 316 311 303 306 308 312 316 309 304 300 299 300 298 298 296 295 296 300 301 303 302 300 300 300 302 301
54 346 16 24 9 351 33 30 358 71 49 9 315 339 20 58 295 268 320 342 342 347 347 347 346 340 335 329 319 316 313 312 311 310 306 301 297 294 294 295 295 294 291 291 294 296 297 299 299 299 297 296 298 299
72 26 30 340 14 26 125 54 41 24 276 338 302 356 138 185 235 333 336 345 347 349 346 343 343 339 337 335 330 324 315 311 310 311 312 312 307 302 300 299 298 296 295 294 294 294 295 296 297 297 296 296 298 296
24 356 349 356 15 45 48 119 251 330 322 293 166 266 265 259 296 330 348 353 357 351 343 338 333 336 332 330 326 324 322 319 316 316 315 317 317 316 311 308 307 304 301 300 299 300 298 296 295 295 297 298 297 295
358 355 357 3 50 354 1 349 323 318 308 282 287 288 284 275 287 331 352 347 336 349 349 344 339 338 337 333 331 326 316 313 312 308 310 312 309 309 306 302 299 296 294 294 293 289 286 288 289 289 291 293 295 295
347 348 325 319 286 316 332 331 324 313 299 289 287 283 297 310 309 303 336 346 345 341 338 336 338 334 336 337 335 334 336 327 324 316 310 309 307 304 300 296 295 293 292 292 292 292 291 289 288 289 289 290 291 292
328 349 345 325 326 325 332 341 324 318 306 301 294 317 329 318 300 313 336 340 337 337 334 334 333 333 328 327 323 323 322 319 315 314 313 310 309 308 304 301 298 295 293 292 292 292 291 291 291 291 291 292 292 292
307 328 318 297 299 317 331 339 324 322 271 275 276 295 296 290 272 313 325 330 334 335 328 333 331 328 324 319 318 317 314 312 310 307 305 303 301 301 298 296 294 293 292 291 291 291 291 290 290 291 292 292 293 294
Wind_Speed_850mb
19 17 17 17 12 19 20 21 21 25 21 18 13 9 12 17 14 21 17 14 9 10 13 16 13 11 11 10 15 13 11 0 3 7 6 5 5 11 9 9 15 14 13 9 5 15 31 16 11 30 8 12 6 6
13 15 10 15 16 15 19 21 21 23 24 19 15 12 12 18 15 23 22 16 19 12 15 25 22 24 27 16 24 18 5 6 7 9 5 5 4 3 9 7 1 5 12 13 23 16 1 29 5 12 3 7 2 3
7 5 8 11 13 16 18 18 27 27 24 20 17 13 11 14 16 15 23 19 24 32 23 12 21 22 19 20 23 12 6 9 8 10 7 3 6 5 7 8 6 6 4 6 7 4 6 30 12 13 2 8 7 5
2 5 5 11 11 14 16 17 18 33 31 25 22 19 15 15 16 17 24 24 14 12 8 7 15 18 22 16 16 18 38 36 29 17 8 5 4 3 4 3 5 3 10 9 5 5 12 4 16 6 9 5 5 8
12 12 11 11 11 12 15 18 17 23 26 27 27 23 18 16 18 20 20 20 13 7 8 10 19 17 19 22 21 27 17 21 16 7 5 3 8 6 2 4 2 9 6 6 4 7 10 10 15 10 4 3 8 9
12 10 17 15 14 14 17 20 21 23 22 26 29 25 23 17 18 20 6 11 14 19 11 4 5 8 18 26 35 33 29 28 11 9 4 5 6 5 4 4 7 13 12 6 8 11 15 14 9 10 7 2 4 10
20 13 12 13 13 12 16 18 19 22 25 25 27 28 25 23 24 9 5 17 21 17 8 5 5 6 15 17 14 17 16 12 9 8 6 7 6 9 5 4 1 10 8 6 13 18 11 13 6 6 10 6 7 6
13 15 12 11 14 15 12 13 12 15 21 29 29 33 31 31 25 14 16 25 22 10 7 6 1 4 6 7 8 7 6 7 10 6 5 4 8 5 1 15 7 14 13 5 9 10 5 12 10 15 15 14 12 14
9 11 15 12 11 13 15 11 21 23 25 31 41 57 41 24 9 15 20 21 10 8 8 6 8 6 11 8 8 6 5 5 5 4 2 5 1 4 11 9 12 19 18 22 24 20 15 11 12 10 7 4 6 9
8 13 15 18 17 14 12 16 14 28 30 44 37 20 10 14 33 25 12 6 3 4 5 4 8 5 8 5 5 5 6 3 3 4 2 5 6 10 6 3 8 25 10 13 19 12 5 4 3 8 11 12 14 15
17 16 14 15 14 13 12 11 10 23 31 22 8 9 39 28 11 8 6 6 6 5 4 4 6 8 5 6 5 3 4 2 5 7 8 3 5 5 12 17 15 15 13 16 11 8 7 11 14 15 16 18 20 24
28 20 12 8 8 10 13 8 4 8 14 14 28 33 14 7 8 10 3 6 4 6 4 7 7 9 10 7 7 1 6 4 5 3 6 6 6 3 8 14 17 16 17 17 16 17 16 16 15 15 15 15 17 20
32 20 10 6 2 4 2 3 7 6 4 33 14 8 2 6 14 9 4 7 4 5 11 10 4 8 9 7 11 6 7 6 3 3 7 7 3 8 14 17 15 12 10 10 9 8 7 8 9 9 12 16 17 19
23 13 5 2 9 14 16 14 12 15 12 5 6 5 7 2 5 8 9 8 2 2 17 17 9 5 6 6 4 8 2 5 5 1 10 5 12 12 12 11 14 10 6 1 3 6 6 7 10 13 13 11 11 12
13 4 6 16 23 26 30 33 34 28 8 4 5 4 6 6 8 7 6 6 5 15 17 15 10 7 3 6 5 7 5 5 10 9 6 3 11 10 7 6 6 5 1 5 8 10 10 9 9 13 17 19 18 19
10 6 14 22 18 16 20 47 63 28 8 6 10 8 6 5 4 6 9 8 7 16 9 8 4 6 2 8 6 8 12 11 7 3 1 5 11 10 8 6 3 1 3 5 7 11 15 19 22 25 27 27 28 29
9 11 15 9 4 38 63 73 51 13 9 6 7 17 12 13 8 7 8 8 7 4 3 3 5 5 4 4 1 7 9 4 4 6 5 5 7 7 7 6 7 8 10 14 19 23 27 31 33 34 32 32 34 36
10 12 12 18 45 47 41 22 11 11 13 15 5 9 15 16 10 12 11 11 5 4 3 2 12 7 7 10 7 2 3 3 5 3 3 1 1 0 2 6 9 13 16 18 19 23 26 29 33 35 38 40 41 43
13 17 19 20 29 18 9 12 11 12 12 8 10 16 14 12 23 18 12 9 10 11 9 5 4 1 3 2 2 3 5 7 5 7 12 11 7 7 9 11 13 15 18 21 24 27 30 33 34 37 39 43 48 50
21 21 19 15 10 9 10 12 12 13 8 6 10 10 8 9 10 19 17 11 9 7 15 8 2 1 3 5 6 6 7 8 10 10 4 6 11 15 20 22 22 22 22 23 25 26 27 30 35 37 41 45 50 52
20 16 18 13 17 22 15 11 14 11 8 9 9 11 8 10 12 15 17 17 12 12 4 7 5 7 7 6 4 4 5 8 10 10 14 12 15 24 24 28 28 29 27 26 27 29 31 30 28 29 32 35 36 39
19 15 15 22 16 13 17 20 10 7 6 7 7 9 11 8 13 17 16 18 10 9 7 10 11 11 10 11 9 10 9 10 12 15 18 22 22 20 19 24 26 25 27 26 26 25 24 24 23 23 23 24 26 27
13 15 16 19 11 14 8 12 7 12 6 7 5 6 7 7 12 11 10 8 6 13 13 13 14 14 12 10 11 13 14 16 18 21 22 23 23 25 25 24 26 25 22 23 24 23 22 22 23 24 25 25 27 26
14 13 17 16 23 6 8 13 11 11 9 8 6 4 6 10 16 9 4 4 8 11 15 18 17 14 12 12 12 13 17 18 19 20 27 26 24 20 25 24 23 24 25 24 25 24 24 24 25 26 28 28 28 27
10 26 17 15 18 14 13 11 12 10 6 7 6 6 7 13 5 5 0 5 14 16 18 18 17 17 17 14 15 18 21 23 24 22 21 27 26 25 23 27 27 27 27 28 27 28 27 28 29 30 31 31 31 30
16 26 14 12 13 10 4 7 8 6 5 8 3 13 9 4 7 2 4 13 14 20 23 22 21 19 16 18 19 19 22 27 28 28 24 26 27 31 31 30 27 25 29 29 30 32 31 31 31 32 31 33 34 35
12 9 13 18 9 6 6 3 2 5 6 4 6 9 5 7 3 5 7 10 17 21 22 23 24 24 24 20 22 26 29 30 30 30 28 30 32 34 35 35 32 29 29 31 34 35 34 33 33 34 35 33 33 37
10 17 3 18 9 11 5 3 5 3 4 5 7 5 4 8 6 8 7 16 18 19 21 22 22 22 23 22 23 22 23 26 29 31 31 29 26 26 26 26 25 26 27 28 29 31 33 34 36 36 38 38 36 34
9 25 15 9 5 7 7 3 3 3 9 4 4 5 6 6 6 7 10 15 17 21 21 18 21 24 25 26 25 25 25 26 29 29 26 26 25 23 24 25 27 28 31 32 32 35 36 38 38 41 41 40 39 39
15 28 9 8 4 4 5 10 10 19 15 10 11 11 11 9 6 7 15 21 19 26 26 25 28 29 28 28 26 22 27 30 29 29 32 30 31 31 31 32 33 34 38 40 39 37 39 44 45 47 49 51 51 51
16 17 10 6 5 4 15 22 17 15 11 8 12 12 14 14 10 8 14 25 24 29 31 27 25 29 31 32 34 35 30 29 29 31 34 36 35 35 36 38 41 43 46 48 48 48 49 51 52 54 55 56 55 55
12 10 12 6 5 13 17 18 13 8 7 7 6 10 12 11 8 8 19 28 28 31 25 26 30 28 31 32 33 36 39 37 35 38 40 43 42 40 41 42 43 45 48 50 51 52 52 54 56 56 58 57 56 56
9 9 7 8 8 6 9 20 6 9 8 6 5 7 6 7 8 8 24 25 30 29 21 27 31 34 35 37 37 40 41 41 44 47 49 51 53 53 55 55 54 54 56 58 58 58 58 59 61 62 63 65 66 66
Wind_Direction_850mb
50 62 68 94 127 171 162 154 160 168 179 176 166 166 167 173 173 175 126 100 115 106 55 34 46 85 113 154 162 152 115 244 44 95 118 208 153 207 114 167 170 150 145 183 115 213 257 160 132 176 247 44 63 74
44 49 90 104 116 161 181 169 156 162 164 161 153 143 158 172 150 157 158 102 117 105 107 89 71 78 75 98 153 149 69 115 159 108 163 143 157 95 151 199 256 196 186 174 186 209 154 181 174 197 55 84 112 127
328 22 61 137 133 144 165 175 176 164 161 159 156 150 152 162 161 156 160 139 107 110 99 89 75 73 95 92 114 110 96 127 118 112 127 125 135 108 163 235 102 253 168 174 95 208 161 195 214 208 167 115 98 57
175 64 118 152 155 155 163 176 182 186 171 173 170 164 161 167 165 165 161 167 137 122 101 55 100 84 74 92 107 85 106 103 93 81 78 97 130 204 211 152 152 207 132 167 268 113 107 108 218 185 192 124 68 31
118 75 95 127 162 173 163 170 182 198 177 182 181 172 162 161 161 157 166 157 138 84 125 111 106 82 86 89 115 147 118 94 75 66 70 131 111 119 355 50 278 180 187 182 210 150 112 123 90 115 170 68 66 60
78 50 64 94 100 161 169 172 176 175 186 196 193 179 177 162 156 146 123 170 134 115 105 95 98 88 107 107 119 138 131 126 98 112 108 99 134 97 98 177 264 187 163 156 137 106 93 111 124 115 111 164 282 311
43 76 72 80 74 113 145 151 163 174 188 195 190 181 175 172 170 172 160 154 142 114 99 79 4 80 118 126 101 94 95 99 90 99 71 126 114 145 93 174 126 174 168 198 178 165 172 184 173 260 285 303 332 26
44 47 80 90 75 88 107 161 168 160 174 177 178 168 167 168 157 118 117 153 146 92 82 112 25 64 122 65 77 84 82 88 50 81 105 96 113 85 216 247 220 169 180 227 176 208 202 186 122 91 86 79 61 55
71 69 75 94 93 90 89 103 141 124 143 159 154 158 157 150 121 132 137 152 119 83 108 85 129 180 137 83 84 71 72 65 34 80 58 131 0 214 221 237 191 180 177 195 189 164 127 114 95 77 53 2 343 337
143 121 84 64 70 85 93 96 149 132 122 121 80 66 59 102 120 122 108 102 90 15 67 99 127 108 124 88 70 108 26 87 107 268 91 89 252 251 199 117 163 169 104 151 159 164 192 183 296 321 325 316 313 311
175 154 112 103 87 77 73 101 112 159 147 107 73 74 123 101 68 52 90 62 358 30 56 88 102 120 109 99 150 63 147 54 100 253 138 311 270 251 222 210 150 168 177 187 199 205 246 267 278 283 283 287 290 294
174 153 137 145 79 88 61 84 168 79 52 117 121 124 104 79 62 75 332 348 59 218 193 141 141 114 119 125 97 68 105 43 201 194 184 284 249 351 131 171 207 220 223 225 232 249 260 268 277 285 288 294 299 302
147 144 157 149 75 336 319 29 143 179 74 113 115 129 99 18 48 107 215 307 338 210 180 160 113 109 104 88 69 83 86 188 135 105 218 229 89 129 129 130 132 143 164 186 204 220 232 254 275 293 307 315 316 312
114 141 141 342 294 272 264 254 189 157 209 118 127 67 117 307 244 185 182 189 142 231 161 135 91 111 112 70 141 98 257 72 62 23 232 241 156 138 129 129 132 112 106 82 287 285 282 289 298 301 302 306 314 319
128 79 350 332 300 283 265 231 182 178 194 112 126 146 206 138 87 113 145 105 50 140 146 114 71 99 50 92 65 102 62 210 202 222 224 120 169 163 133 133 140 138 322 310 308 303 302 309 313 310 306 305 308 310
76 28 354 335 319 312 254 185 171 160 93 64 43 98 72 64 352 80 74 90 66 148 137 97 100 82 104 132 117 207 124 206 241 222 5 154 160 159 152 154 126 107 286 300 298 302 304 307 310 307 302 300 302 304
39 16 13 4 79 99 111 129 135 83 73 55 31 65 76 70 78 53 61 58 113 124 145 110 106 165 84 82 53 194 196 236 34 72 86 148 178 183 195 205 230 253 269 277 284 288 292 296 296 294 293 296 299 301
22 6 44 72 113 109 107 92 81 76 67 44 71 24 52 59 62 58 57 56 99 82 56 77 135 77 160 157 256 251 71 72 113 82 52 89 132 205 282 289 294 295 294 291 287 287 287 288 290 293 295 297 299 300
53 76 99 85 112 100 64 45 44 87 59 61 55 45 52 65 56 59 72 79 90 97 106 66 65 161 216 211 229 50 37 22 332 292 295 279 273 300 307 302 297 294 294 296 298 297 295 294 294 296 297 298 300 303
77 93 80 62 39 78 75 44 46 74 80 61 50 39 53 45 52 52 58 80 86 58 44 41 108 355 8 359 346 341 339 338 346 352 323 280 293 306 314 313 305 296 289 285 284 281 283 288 293 296 298 299 300 302
92 79 50 48 55 61 74 49 58 60 64 68 35 36 39 39 41 36 28 32 60 43 65 46 16 340 322 319 317 337 316 315 319 321 303 294 294 301 301 301 304 302 299 291 286 286 288 289 290 292 296 297 301 305
57 42 37 42 58 64 63 41 63 60 61 69 42 32 39 24 14 12 9 45 61 41 32 4 355 344 323 311 296 285 285 288 297 301 301 298 300 294 290 294 297 296 295 293 290 288 288 289 293 299 303 306 313 318
34 31 46 33 66 49 41 32 56 28 58 12 31 53 30 18 1 6 69 59 77 24 20 12 2 1 349 331 315 306 304 301 301 304 303 300 298 300 302 299 298 299 297 296 295 293 292 293 296 301 308 313 313 313
57 53 32 39 29 31 11 30 33 27 44 26 22 39 16 337 348 54 70 43 11 2 2 359 356 357 358 347 332 316 314 313 311 312 310 310 300 295 298 300 295 293 293 296 296 297 297 301 303 303 299 297 297 300
67 14 24 6 15 24 27 10 357 28 43 344 21 4 346 346 43 48 287 351 0 5 2 354 348 342 333 334 323 322 320 318 315 313 307 310 310 304 302 305 301 298 297 294 294 299 304 300 298 297 296 296 298 299
66 18 36 357 0 41 340 33 18 358 355 358 334 318 331 34 53 327 272 340 343 344 347 346 342 337 331 321 316 311 303 306 308 312 316 309 304 300 299 300 298 298 296 295 296 300 301 303 302 300 300 300 302 301
54 346 16 24 9 351 33 30 358 71 49 9 315 339 20 58 295 268 320 342 342 347 347 347 346 340 335 329 319 316 313 312 311 310 306 301 297 294 294 295 295 294 291 291 294 296 297 299 299 299 297 296 298 299
72 26 30 340 14 26 125 54 41 24 276 338 302 356 138 185 235 333 336 345 347 349 346 343 343 339 337 335 330 324 315 311 310 311 312 312 307 302 300 299 298 296 295 294 294 294 295 296 297 297 296 296 298 296
24 356 349 356 15 45 48 119 251 330 322 293 166 266 265 259 296 330 348 353 357 351 343 338 333 336 332 330 326 324 322 319 316 316 315 317 317 316 311 308 307 304 301 300 299 300 298 296 295 295 297 298 297 295
358 355 357 3 50 354 1 349 323 318 308 282 287 288 284 275 287 331 352 347 336 349 349 344 339 338 337 333 331 326 316 313 312 308 310 312 309 309 306 302 299 296 294 294 293 289 286 288 289 289 291 293 295 295
347 348 325 319 286 316 332 331 324 313 299 289 287 283 297 310 309 303 336 346 345 341 338 336 338 334 336 337 335 334 336 327 324 316 310 309 307 304 300 296 295 293 292 292 292 292 291 289 288 289 289 290 291 292
328 349 345 325 326 325 332 341 324 318 306 301 294 317 329 318 300 313 336 340 337 337 334 334 333 333 328 327 323 323 322 319 315 314 313 310 309 308 304 301 298 295 293 292 292 292 291 291 291 291 291 292 292 292
307 328 318 297 299 317 331 339 324 322 271 275 276 295 296 290 272 313 325 330 334 335 328 333 331 328 324 319 318 317 314 312 310 307 305 303 301 301 298 296 294 293 292 291 291 291 291 290 290 291 292 292 293 294